1497081600.09,14229,19.63,74136.8,14.65,3.71,3.67,0,*40
1497081601.3,14230,19.69,74140.8,14.63,3.85,3.85,0,*49
1497081602.48,14231,19.63,74138.8,14.61,3.25,3.25,0,*4A
1497081603.71,14232,19.63,74138.8,14.61,3.53,3.75,0,*4D
1497081604.97,14233,19.63,74138.0,14.59,3.03,3.15,0,*44
1497081606.18,14234,19.63,74140.3,14.57,3.55,3.71,0,*4C
1497081607.38,14235,19.63,74138.5,14.57,2.77,2.99,0,*4B
1497081608.65,14236,19.63,74138.5,14.55,3.23,3.41,0,*4E
1497081609.89,14237,19.69,74140.0,14.53,3.19,3.41,0,*40
1497081611.09,14238,19.69,74142.0,14.55,3.55,3.85,0,*49
1497081612.27,14239,19.69,74142.0,14.53,3.63,3.89,0,*47
1497081613.48,14240,19.63,74136.3,14.53,3.33,3.55,0,*4D
1497081614.66,14241,19.63,74136.8,14.53,3.93,4.27,0,*44
1497081615.85,14242,19.63,74138.5,14.53,3.63,3.93,0,*40
1497081617.11,14243,19.63,74138.0,14.49,3.41,3.71,0,*46
1497081618.36,14244,19.63,74138.0,14.49,3.75,4.01,0,*46
1497081619.56,14245,19.63,74136.8,14.49,3.63,3.85,0,*4B
1497081620.76,14246,19.63,74138.0,14.53,3.53,3.85,0,*40
1497081621.95,14247,19.63,74136.0,14.53,3.93,4.27,0,*42
1497081623.15,14248,19.69,74138.5,14.49,4.45,4.89,0,*4E
1497081624.38,14249,19.69,74138.3,14.49,4.57,5.05,0,*49
1497081625.62,14250,19.69,74136.8,14.53,4.05,4.63,0,*4C
1497081626.83,14251,19.63,74138.0,14.53,4.57,5.27,0,*4B
1497081628.07,14252,19.69,74140.0,14.55,5.05,5.99,0,*4D
1497081629.28,14253,19.63,74136.0,14.57,5.01,6.03,0,*4A
1497081630.52,14254,19.69,74140.0,14.59,5.59,6.51,0,*49
1497081631.72,14255,19.69,74142.0,14.63,5.07,5.95,0,*41
1497081632.92,14256,19.63,74138.3,14.65,4.89,5.93,0,*45
1497081634.18,14257,19.69,74142.8,14.67,3.79,4.97,0,*4B
1497081635.37,14258,19.69,74138.0,14.69,4.19,5.33,0,*44
1497081636.62,14259,19.69,74140.3,14.71,5.27,6.51,0,*47
1497081637.82,14260,19.69,74140.3,14.77,5.23,6.61,0,*4C
1497081639.04,14261,19.63,74136.5,14.79,5.33,6.53,0,*43
1497081640.24,14262,19.69,74136.8,14.79,5.59,7.05,0,*4E
1497081641.46,14263,19.69,74138.0,14.83,5.19,6.69,0,*45
1497081642.69,14264,19.69,74138.0,14.89,4.79,6.17,0,*46
1497081643.9,14265,19.63,74138.5,14.89,3.97,5.59,0,*49
1497081645.11,14266,19.63,74138.5,14.93,4.33,5.81,0,*4D
1497081646.34,14267,19.63,74132.8,14.91,4.45,5.89,0,*47
1497081647.56,14268,19.63,74136.8,14.99,4.85,6.17,0,*48
1497081648.77,14269,19.69,74140.3,15.01,5.07,6.13,0,*46
1497081649.94,14270,19.69,74140.3,15.01,5.37,6.25,0,*48
1497081651.16,14271,19.63,74136.8,15.03,5.63,5.99,0,*4E
1497081652.42,14272,19.69,74138.5,15.03,5.73,5.93,0,*46
1497081653.63,14273,19.63,74136.5,15.05,5.99,6.17,0,*4A
1497081654.86,14274,19.63,74136.3,15.07,5.05,5.29,0,*44
1497081656.07,14275,19.69,74138.5,15.07,5.41,5.67,0,*4F
1497081657.32,14276,19.63,74138.5,15.07,5.55,5.85,0,*45
1497081658.57,14277,19.63,74138.8,15.07,5.73,5.89,0,*4C
1497081659.8,14278,19.69,74138.5,15.09,5.55,5.55,0,*48
1497081660.98,14279,19.63,74138.3,15.09,5.23,5.23,0,*49
1497081662.17,14280,19.63,74138.3,15.09,5.11,5.19,0,*47
1497081663.43,14281,19.63,74134.8,15.07,4.75,4.63,0,*47
1497081664.61,14282,19.69,74136.5,15.05,5.15,5.19,0,*4D
1497081665.79,14283,19.69,74136.8,15.05,5.37,5.49,0,*49
1497081667.02,14284,19.69,74138.5,15.07,6.11,6.13,0,*47
1497081668.2,14285,19.69,74138.3,15.05,5.41,5.49,0,*4E
1497081669.41,14286,19.69,74136.8,15.03,5.41,5.49,0,*4B
1497081670.59,14287,19.63,74138.3,15.05,5.49,5.59,0,*45
1497081671.79,14288,19.69,74138.3,15.05,5.51,5.63,0,*4A
1497081673.0,14289,19.69,74136.8,15.05,5.15,5.27,0,*4B
1497081674.21,14290,19.69,74138.5,15.03,5.19,5.29,0,*47
1497081675.45,14291,19.69,74138.8,15.03,5.19,5.27,0,*48
1497081676.64,14292,19.63,74136.3,15.01,4.57,4.57,0,*44
1497081677.88,14293,19.69,74138.3,15.03,4.89,4.79,0,*48
1497081679.08,14294,19.63,74136.8,14.99,4.19,4.07,0,*4D
1497081680.32,14295,19.63,74138.5,14.95,4.59,4.49,0,*4E
1497081681.53,14296,19.69,74138.3,14.99,5.11,5.07,0,*47
1497081682.75,14297,19.63,74136.8,14.95,5.23,5.23,0,*4D
1497081683.98,14298,19.63,74138.3,14.95,5.45,5.51,0,*47
1497081685.18,14299,19.69,74138.8,14.95,5.45,5.45,0,*43
1497081686.41,14300,19.69,74138.0,14.93,5.51,5.51,0,*44
1497081687.62,14301,19.69,74138.5,14.95,5.33,5.33,0,*43
1497081688.82,14302,19.63,74136.3,14.91,5.59,5.63,0,*4D
1497081690.0,14303,19.69,74136.5,14.93,5.37,5.29,0,*48
1497081691.27,14304,19.63,74134.8,14.91,5.05,5.01,0,*46
1497081692.48,14305,19.69,74140.5,14.91,4.11,4.07,0,*44
1497081693.69,14306,19.69,74136.0,14.89,4.01,3.93,0,*45
1497081694.9,14307,19.63,74138.3,14.87,3.93,3.89,0,*4D
1497081696.13,14308,19.69,74136.0,14.83,3.85,3.79,0,*4E
1497081697.34,14309,19.69,74136.0,14.83,4.27,4.33,0,*49
1497081698.52,14310,19.63,74136.8,14.81,4.19,4.23,0,*4F
1497081699.73,14311,19.69,74138.5,14.79,4.07,4.07,0,*40
1497081700.99,14312,19.69,74138.3,14.79,4.05,3.97,0,*4F
1497081702.22,14313,19.69,74140.8,14.77,3.67,3.67,0,*4C
1497081703.46,14314,19.69,74138.3,14.71,3.75,3.85,0,*42
1497081704.66,14315,19.69,74136.0,14.71,3.59,3.59,0,*4C
1497081705.89,14316,19.69,74136.3,14.65,3.67,3.79,0,*45
1497081707.07,14317,19.69,74138.3,14.65,4.07,4.19,0,*44
1497081708.25,14318,19.69,74138.8,14.65,4.07,4.15,0,*47
1497081709.49,14319,19.63,74136.8,14.61,3.41,3.37,0,*40
1497081710.72,14320,19.69,74138.0,14.59,3.63,3.71,0,*43
1497081711.93,14321,19.69,74136.5,14.57,3.71,3.81,0,*40
1497081713.16,14322,19.63,74136.5,14.57,3.97,4.05,0,*40
1497081714.39,14323,19.69,74136.5,14.55,3.79,3.85,0,*4C
1497081715.65,14324,19.69,74138.5,14.55,3.41,3.53,0,*4B
1497081716.85,14325,19.69,74138.3,14.47,3.85,4.05,0,*45
1497081718.08,14326,19.69,74138.3,14.47,3.97,4.05,0,*45
1497081719.29,14327,19.69,74138.3,14.47,3.71,3.81,0,*47
1497081720.47,14328,19.63,74134.8,14.43,3.89,3.89,0,*43
1497081721.68,14329,19.69,74138.3,14.43,3.63,3.79,0,*49
1497081722.88,14330,19.69,74138.3,14.41,4.11,4.11,0,*48
1497081724.06,14331,19.69,74136.3,14.39,4.41,4.45,0,*42
1497081725.31,14332,19.69,74138.8,14.41,3.97,4.01,0,*42
1497081726.51,14333,19.69,74136.8,14.39,3.71,3.85,0,*4F
1497081727.72,14334,19.63,74138.3,14.37,3.59,3.59,0,*4D
1497081728.95,14335,19.69,74138.8,14.35,3.41,3.53,0,*4D
1497081730.21,14336,19.69,74140.0,14.33,3.07,3.23,0,*4D
1497081731.42,14337,19.69,74138.0,14.31,3.59,3.75,0,*46
1497081732.64,14338,19.69,74136.5,14.31,3.15,3.25,0,*44
1497081733.85,14339,19.69,74138.8,14.27,3.75,3.85,0,*4E
1497081735.06,14340,19.63,74136.0,14.27,3.71,3.81,0,*40
1497081736.32,14341,19.69,74136.3,14.25,3.37,3.33,0,*48
1497081737.52,14342,19.69,74138.8,14.23,2.73,2.95,0,*41
1497081738.76,14343,19.69,74136.0,14.21,3.85,4.01,0,*41
1497081740.0,14344,19.69,74138.3,14.19,3.53,3.97,0,*4E
1497081741.27,14345,19.69,74138.3,14.21,3.75,3.97,0,*40
1497081742.46,14346,19.69,74136.5,14.19,3.89,4.19,0,*4A
1497081743.71,14347,19.69,74136.5,14.19,3.37,3.67,0,*40
1497081744.92,14348,19.69,74142.0,14.17,3.59,3.97,0,*46
1497081746.12,14349,19.69,74138.0,14.17,3.15,3.63,0,*44
1497081747.36,14350,19.69,74140.0,14.17,3.11,3.49,0,*40
1497081748.61,14351,19.69,74136.8,14.15,2.89,3.49,0,*43
1497081749.84,14352,19.69,74138.0,14.13,3.19,3.67,0,*42
1497081751.02,14353,19.69,74142.5,14.13,4.11,4.53,0,*4C
1497081752.25,14354,19.69,74136.5,14.15,3.11,3.29,0,*40
1497081753.49,14355,19.69,74138.8,14.13,3.23,3.45,0,*4C
1497081754.69,14356,19.69,74138.3,14.11,2.95,3.25,0,*47
1497081755.91,14357,19.69,74138.5,14.11,3.97,4.27,0,*40
1497081757.16,14358,19.69,74136.0,14.11,3.45,3.79,0,*4C
1497081758.38,14359,19.69,74136.0,14.11,3.29,3.67,0,*48
1497081759.64,14360,19.69,74138.5,14.11,3.03,3.45,0,*4A
1497081760.88,14361,19.69,74140.5,14.09,3.07,3.45,0,*46
1497081762.12,14362,19.69,74140.0,14.09,3.03,3.41,0,*45
1497081763.34,14363,19.69,74142.3,14.05,2.81,3.23,0,*47
1497081764.59,14364,19.69,74136.0,14.03,3.33,3.71,0,*49
1497081765.84,14365,19.69,74136.5,14.03,3.33,3.67,0,*4F
1497081767.02,14366,19.69,74138.5,14.05,2.91,3.25,0,*45
1497081768.26,14367,19.69,74138.0,14.01,3.03,3.41,0,*48
1497081769.45,14368,19.69,74140.5,14.01,2.35,2.61,0,*40
1497081770.7,14369,19.69,74140.5,13.99,2.21,2.43,0,*42
1497081771.89,14370,19.69,74138.3,14.01,3.63,3.89,0,*4C
1497081773.07,14371,19.69,74138.3,14.01,4.15,4.45,0,*4C
1497081774.28,14372,19.69,74138.3,14.01,3.67,3.89,0,*4A
1497081775.54,14373,19.69,74136.3,13.99,3.45,3.79,0,*42
1497081776.81,14374,19.69,74142.3,13.99,3.07,3.41,0,*48
1497081778.06,14375,19.69,74140.0,13.99,2.55,2.69,0,*44
1497081779.29,14376,19.69,74142.5,13.97,2.09,2.21,0,*4C
1497081780.52,14377,19.69,74138.0,13.95,2.99,3.11,0,*44
1497081781.76,14378,19.69,74140.0,13.93,3.07,3.11,0,*4B
1497081782.97,14379,19.69,74138.0,13.93,3.49,3.55,0,*40
1497081784.19,14380,19.69,74140.3,13.93,3.49,3.67,0,*47
1497081785.45,14381,19.69,74138.0,13.91,3.45,3.67,0,*48
1497081786.69,14382,19.69,74140.3,13.93,3.23,3.45,0,*49
1497081787.95,14383,19.69,74138.3,13.91,3.67,4.01,0,*4D
1497081789.14,14384,19.69,74140.8,13.93,3.59,3.89,0,*42
1497081790.34,14385,19.69,74142.8,13.91,3.85,4.11,0,*46
1497081791.55,14386,19.69,74138.3,13.91,3.63,3.89,0,*4B
1497081792.79,14387,19.69,74136.3,13.91,3.67,3.93,0,*45
1497081794.03,14388,19.69,74138.8,13.91,3.67,3.89,0,*41
1497081795.26,14389,19.69,74140.0,13.91,3.85,4.01,0,*4B
1497081796.47,14390,19.69,74138.3,13.91,4.15,4.45,0,*4D
1497081797.71,14391,19.69,74136.0,13.91,4.33,4.67,0,*48
1497081798.92,14392,19.69,74140.0,13.91,4.23,4.57,0,*49
1497081800.11,14393,19.69,74140.3,13.93,3.59,3.89,0,*44
1497081801.32,14394,19.69,74140.0,13.93,3.89,4.05,0,*4D
1497081802.5,14395,19.69,74142.0,13.93,4.19,4.49,0,*4A
1497081803.74,14396,19.69,74138.3,13.91,4.37,4.67,0,*4B
1497081804.95,14397,19.69,74138.5,13.93,4.49,4.75,0,*42
1497081806.17,14398,19.69,74138.0,13.93,4.41,4.71,0,*41
1497081807.4,14399,19.69,74140.3,13.95,4.63,4.81,0,*49
1497081808.61,14400,19.69,74136.3,13.97,4.45,4.67,0,*40
1497081809.84,14401,19.69,74138.0,13.97,4.01,4.31,0,*42
1497081811.07,14402,19.69,74140.0,13.97,4.01,4.31,0,*41
1497081812.3,14403,19.69,74138.5,13.97,3.49,3.71,0,*48
1497081813.56,14404,19.69,74138.8,13.95,3.41,3.71,0,*45
1497081814.77,14405,19.69,74136.8,13.95,3.59,3.93,0,*41
1497081816.03,14406,19.63,74134.8,13.95,3.03,3.37,0,*43
1497081817.27,14407,19.69,74142.0,13.95,3.41,3.81,0,*49
1497081818.53,14408,19.69,74136.3,13.95,3.15,3.49,0,*43
1497081819.8,14409,19.69,74138.3,13.95,3.23,3.49,0,*47
1497081821.03,14410,19.69,74136.8,13.95,3.25,3.71,0,*42
1497081822.29,14411,19.69,74136.8,13.95,3.23,3.53,0,*45
1497081823.5,14412,19.69,74142.8,13.93,2.89,3.25,0,*40
1497081824.7,14413,19.69,74142.8,13.93,3.37,3.59,0,*4E
1497081825.88,14414,19.69,74136.8,13.93,3.89,4.27,0,*42
1497081827.1,14415,19.69,74138.8,13.93,3.79,4.07,0,*4E
1497081828.29,14416,19.69,74136.5,13.93,3.89,4.15,0,*41
1497081829.47,14417,19.69,74140.0,13.97,3.63,3.93,0,*49
1497081830.7,14418,19.69,74136.8,13.95,3.03,3.29,0,*43
1497081831.96,14419,19.69,74142.0,13.95,2.43,2.69,0,*42
1497081833.2,14420,19.69,74140.0,13.95,2.17,2.27,0,*43
1497081834.4,14421,19.69,74140.8,13.93,2.85,2.99,0,*4A
1497081835.67,14422,19.69,74136.8,13.91,3.23,3.33,0,*47
1497081836.91,14423,19.69,74136.5,13.91,3.67,3.89,0,*47
1497081838.15,14424,19.69,74138.5,13.93,3.23,3.33,0,*43
1497081839.38,14425,19.69,74140.0,13.93,3.49,3.67,0,*4F
1497081840.64,14426,19.69,74138.8,13.91,2.47,2.59,0,*4D
1497081841.89,14427,19.69,74140.5,13.91,2.85,3.03,0,*4C
1497081843.15,14428,19.69,74136.5,13.91,3.07,3.19,0,*43
1497081844.41,14429,19.69,74138.3,13.91,3.33,3.53,0,*4B
1497081845.66,14430,19.69,74140.0,13.91,3.53,3.75,0,*41
1497081846.92,14431,19.69,74140.3,13.91,3.33,3.33,0,*44
1497081848.17,14432,19.69,74140.5,13.91,3.45,3.53,0,*40
1497081849.44,14433,19.69,74138.5,13.91,3.41,3.45,0,*42
1497081850.69,14434,19.69,74136.5,13.91,3.23,3.23,0,*41
1497081851.95,14435,19.69,74138.0,13.91,3.23,3.23,0,*40
1497081853.21,14436,19.69,74140.0,13.91,3.03,3.15,0,*44
1497081854.42,14437,19.69,74140.8,13.89,3.33,3.29,0,*40
1497081855.62,14438,19.69,74138.8,13.89,3.53,3.55,0,*42
1497081856.84,14439,19.69,74138.3,13.89,3.03,2.91,0,*4F
1497081858.02,14440,19.69,74140.0,13.89,3.25,3.25,0,*4B
1497081859.26,14441,19.69,74142.5,13.89,3.79,3.75,0,*46
1497081860.5,14442,19.69,74136.0,13.89,3.45,3.45,0,*49
1497081861.74,14443,19.69,74138.5,13.89,3.45,3.45,0,*48
1497081862.95,14444,19.69,74138.5,13.89,3.85,3.75,0,*40
1497081864.16,14445,19.69,74140.0,13.89,4.01,3.93,0,*42
1497081865.39,14446,19.69,74138.0,13.89,4.01,3.75,0,*49
1497081866.6,14447,19.69,74138.3,13.89,3.33,3.29,0,*47
1497081867.8,14448,19.69,74136.8,13.87,3.63,3.53,0,*4E
1497081869.01,14449,19.69,74138.3,13.89,3.93,3.79,0,*46
1497081870.24,14450,19.69,74138.5,13.91,3.45,3.29,0,*49
1497081871.47,14451,19.69,74138.8,13.89,3.33,3.19,0,*43
1497081872.71,14452,19.69,74138.3,13.89,3.03,2.85,0,*47
1497081873.93,14453,19.69,74138.8,13.87,2.77,2.47,0,*44
1497081875.14,14454,19.69,74140.0,13.87,3.25,3.15,0,*43
1497081876.35,14455,19.69,74140.5,13.87,2.89,2.65,0,*43
1497081877.61,14456,19.69,74138.3,13.85,3.23,3.15,0,*45
1497081878.84,14457,19.69,74138.3,13.85,3.55,3.33,0,*41
1497081880.07,14458,19.69,74140.8,13.85,3.49,3.25,0,*44
1497081881.28,14459,19.69,74142.3,13.87,3.37,2.99,0,*48
1497081882.47,14460,19.69,74140.0,13.87,3.59,3.19,0,*43
1497081883.73,14461,19.69,74140.0,13.85,3.49,3.11,0,*49
1497081884.97,14462,19.69,74138.3,13.85,3.67,3.25,0,*41
1497081886.23,14463,19.69,74140.3,13.85,3.79,3.37,0,*4C
1497081887.46,14464,19.69,74140.8,13.87,3.53,3.15,0,*41
1497081888.66,14465,19.69,74136.5,13.87,3.41,2.99,0,*46
1497081889.87,14466,19.69,74140.5,13.87,2.99,2.55,0,*41
1497081891.1,14467,19.69,74140.5,13.85,3.25,2.85,0,*49
1497081892.36,14468,19.69,74140.0,13.85,3.67,3.23,0,*4D
1497081893.61,14469,19.69,74136.8,13.81,2.69,2.01,0,*46
1497081894.82,14470,19.69,74138.3,13.81,2.35,1.79,0,*4B
1497081896.05,14471,19.69,74140.5,13.81,2.81,2.35,0,*4E
1497081897.29,14472,19.69,74138.3,13.79,3.11,2.59,0,*48
1497081898.49,14473,19.69,74142.3,13.79,3.45,2.91,0,*4C
1497081899.75,14474,19.69,74138.8,13.77,3.37,2.69,0,*47
1497081900.99,14475,19.69,74142.3,13.77,3.71,3.25,0,*4D
1497081902.24,14476,19.69,74138.3,13.77,3.79,3.19,0,*49
1497081903.45,14477,19.69,74138.3,13.77,3.85,3.29,0,*48
1497081904.67,14478,19.69,74136.8,13.77,3.89,3.29,0,*4B
1497081905.9,14479,19.69,74140.0,13.77,3.63,3.07,0,*42
1497081907.16,14480,19.69,74136.8,13.77,3.37,2.69,0,*4C
1497081908.42,14481,19.69,74136.0,13.77,3.37,2.77,0,*42
1497081909.63,14482,19.69,74142.3,13.73,3.25,2.61,0,*41
1497081910.82,14483,19.69,74138.8,13.75,3.85,3.25,0,*4D
1497081912.04,14484,19.69,74140.0,13.75,4.07,3.49,0,*4D
1497081913.28,14485,19.69,74136.0,13.75,3.15,2.59,0,*48
1497081914.52,14486,19.69,74140.3,13.73,3.25,2.73,0,*46
1497081915.76,14487,19.69,74140.8,13.71,4.05,3.67,0,*44
1497081916.94,14488,19.69,74136.3,13.71,3.89,3.55,0,*49
1497081918.12,14489,19.69,74138.5,13.71,3.93,3.63,0,*46
1497081919.29,14490,19.69,74140.0,13.71,3.81,3.63,0,*4D
1497081920.51,14491,19.69,74140.0,13.71,4.05,3.89,0,*43
1497081921.71,14492,19.69,74140.8,13.71,3.81,3.71,0,*4C
1497081922.9,14493,19.69,74138.8,13.71,3.93,3.81,0,*41
1497081924.1,14494,19.69,74140.0,13.71,3.63,3.53,0,*46
1497081925.33,14495,19.69,74138.3,13.71,3.79,3.79,0,*44
1497081926.53,14496,19.69,74140.5,13.69,4.45,4.49,0,*42
1497081927.74,14497,19.69,74138.8,13.69,4.27,4.27,0,*4F
1497081928.95,14498,19.69,74140.0,13.71,4.05,4.11,0,*4C
1497081930.2,14499,19.69,74140.3,13.69,3.33,3.33,0,*41
1497081931.44,14500,19.69,74140.0,13.69,3.45,3.55,0,*41
1497081932.67,14501,19.69,74142.3,13.69,3.89,4.05,0,*42
1497081933.89,14502,19.69,74142.0,13.67,4.11,4.31,0,*4E
1497081935.1,14503,19.69,74140.3,13.69,4.33,4.49,0,*4E
1497081936.33,14504,19.69,74138.0,13.69,4.01,4.23,0,*44
1497081937.51,14505,19.69,74142.8,13.71,4.27,4.45,0,*48
1497081938.72,14506,19.69,74140.5,13.69,4.23,4.45,0,*46
1497081939.94,14507,19.69,74140.0,13.69,4.11,4.37,0,*43
1497081941.15,14508,19.69,74138.3,13.69,4.15,4.45,0,*4D
1497081942.39,14509,19.69,74140.8,13.69,3.89,4.05,0,*4A
1497081943.6,14510,19.69,74142.5,13.71,3.45,3.63,0,*4C
1497081944.86,14511,19.69,74142.3,13.69,3.11,3.33,0,*40
1497081946.09,14512,19.69,74138.3,13.69,2.95,3.11,0,*4E
1497081947.33,14513,19.69,74142.3,13.67,3.79,4.01,0,*44
1497081948.55,14514,19.69,74140.8,13.67,3.75,3.89,0,*48
1497081949.78,14515,19.69,74140.8,13.65,3.45,3.59,0,*45
1497081951.02,14516,19.69,74142.3,13.69,3.29,3.33,0,*4C
1497081952.25,14517,19.69,74142.8,13.69,3.55,3.71,0,*40
1497081953.46,14518,19.69,74140.5,13.67,3.85,4.01,0,*4C
1497081954.7,14519,19.69,74142.3,13.67,3.67,3.79,0,*49
1497081955.94,14520,19.69,74142.8,13.69,4.05,4.15,0,*43
1497081957.17,14521,19.69,74142.5,13.69,3.81,4.01,0,*4C
1497081958.35,14522,19.69,74142.5,13.71,4.11,4.23,0,*48
1497081959.58,14523,19.69,74142.5,13.71,4.01,4.01,0,*48
1497081960.76,14524,19.69,74142.5,13.71,4.15,4.15,0,*4F
1497081961.99,14525,19.69,74142.3,13.71,3.53,3.45,0,*49
1497081963.19,14526,19.69,74140.0,13.71,3.67,3.63,0,*49
1497081964.4,14527,19.69,74140.8,13.71,3.55,3.45,0,*4D
1497081965.57,14528,19.69,74140.8,13.71,3.55,3.29,0,*48
1497081966.8,14529,19.69,74146.0,13.71,3.45,3.19,0,*4B
1497081968.01,14530,19.69,74142.8,13.71,3.63,3.41,0,*4A
1497081969.2,14531,19.69,74140.8,13.71,3.55,3.19,0,*43
1497081970.41,14532,19.69,74142.5,13.69,4.33,4.15,0,*45
1497081971.64,14533,19.69,74140.5,13.69,4.63,4.49,0,*48
1497081972.82,14534,19.69,74140.8,13.71,4.53,4.45,0,*49
1497081974.07,14535,19.69,74144.0,13.71,4.71,4.63,0,*4C
1497081975.27,14536,19.69,74142.0,13.71,4.75,4.81,0,*47
1497081976.45,14537,19.69,74140.3,13.71,4.81,4.85,0,*49
1497081977.69,14538,19.69,74144.5,13.69,4.53,4.63,0,*48
1497081978.92,14539,19.69,74142.3,13.71,4.63,4.75,0,*44
1497081980.13,14540,19.69,74142.5,13.71,4.85,5.05,0,*44
1497081981.36,14541,19.69,74140.8,13.71,4.75,4.93,0,*44
1497081982.57,14542,19.69,74142.5,13.71,4.81,4.93,0,*4C
1497081983.78,14543,19.69,74140.0,13.71,4.75,4.81,0,*45
1497081985.02,14544,19.69,74140.5,13.71,4.71,4.75,0,*4D
1497081986.28,14545,19.69,74138.3,13.69,4.63,4.63,0,*41
1497081987.51,14546,19.69,74142.3,13.73,4.57,4.59,0,*47
1497081988.69,14547,19.69,74140.5,13.71,2.95,2.91,0,*4E
1497081989.95,14548,19.69,74140.0,13.69,2.73,2.69,0,*47
1497081991.18,14549,19.69,74138.5,13.63,3.15,3.23,0,*42
1497081992.37,14550,19.69,74138.8,13.63,3.93,4.07,0,*45
1497081993.58,14551,19.69,74142.3,13.59,4.01,4.15,0,*42
1497081994.76,14552,19.69,74140.5,13.59,3.85,4.07,0,*49
1497081995.94,14553,19.69,74140.3,13.59,4.11,4.11,0,*45
1497081997.19,14554,19.69,74142.5,13.59,4.71,4.93,0,*4E
1497081998.4,14555,19.69,74140.5,13.59,4.81,4.97,0,*44
1497081999.61,14556,19.69,74142.8,13.59,4.63,4.81,0,*4C
1497082000.82,14557,19.69,74142.0,13.59,4.71,4.85,0,*4A
1497082002.04,14558,19.69,74142.3,13.59,4.71,4.85,0,*45
1497082003.22,14559,19.69,74142.5,13.59,4.37,4.49,0,*46
1497082004.46,14560,19.69,74142.8,13.63,4.75,4.97,0,*40
1497082005.67,14561,19.69,74140.0,13.59,4.63,4.85,0,*4C
1497082006.91,14562,19.69,74144.0,13.63,4.63,4.79,0,*45
1497082008.11,14563,19.69,74144.8,13.59,4.41,4.59,0,*4F
1497082009.32,14564,19.69,74140.8,13.59,4.63,4.81,0,*4D
1497082010.56,14565,19.69,74142.0,13.59,4.63,4.75,0,*47
1497082011.8,14566,19.69,74140.5,13.57,4.31,4.33,0,*4F
1497082013.03,14567,19.69,74138.8,13.55,3.97,4.07,0,*40
1497082014.26,14568,19.69,74142.8,13.55,4.01,4.07,0,*47
1497082015.5,14569,19.69,74142.3,13.55,4.19,4.31,0,*4A
1497082016.7,14570,19.69,74144.5,13.57,4.45,4.45,0,*4A
1497082017.96,14571,19.69,74142.8,13.51,4.05,4.05,0,*4D
1497082019.19,14572,19.69,74140.5,13.51,4.05,4.11,0,*4B
1497082020.4,14573,19.69,74140.5,13.51,4.37,4.37,0,*4F
1497082021.6,14574,19.69,74140.5,13.55,4.57,4.49,0,*43
1497082022.81,14575,19.69,74140.5,13.51,3.93,3.93,0,*49
1497082024.02,14576,19.69,74138.5,13.49,3.79,3.81,0,*44
1497082025.23,14577,19.69,74142.3,13.47,4.33,4.37,0,*48
1497082026.44,14578,19.69,74140.5,13.47,4.45,4.45,0,*43
1497082027.67,14579,19.69,74142.0,13.49,4.59,4.71,0,*46
1497082028.88,14580,19.69,74140.0,13.47,4.11,4.19,0,*4C
1497082030.11,14581,19.69,74142.0,13.45,3.23,3.33,0,*46
1497082031.31,14582,19.69,74140.5,13.43,3.81,3.85,0,*46
1497082032.54,14583,19.69,74142.0,13.43,4.05,4.19,0,*4E
1497082033.74,14584,19.69,74142.5,13.43,4.19,4.23,0,*4D
1497082034.92,14585,19.69,74142.0,13.41,3.93,4.11,0,*4A
1497082036.12,14586,19.69,74140.0,13.41,4.01,4.11,0,*45
1497082037.3,14587,19.69,74142.8,13.37,4.27,4.27,0,*44
1497082038.48,14588,19.69,74140.5,13.37,4.15,4.15,0,*4B
1497082039.66,14589,19.69,74142.8,13.41,4.19,4.19,0,*4B
1497082040.83,14590,19.69,74142.0,13.37,4.15,4.27,0,*43
1497082042.02,14591,19.69,74140.5,13.37,4.33,4.37,0,*47
1497082043.25,14592,19.69,74142.0,13.35,3.97,4.07,0,*4C
1497082044.43,14593,19.69,74140.0,13.33,4.23,4.37,0,*40
1497082045.64,14594,19.69,74142.8,13.33,4.41,4.67,0,*46
1497082046.85,14595,19.69,74142.8,13.33,4.31,4.53,0,*47
1497082048.07,14596,19.69,74142.8,13.35,4.79,4.85,0,*45
1497082049.3,14597,19.69,74140.0,13.35,4.67,4.85,0,*4B
1497082050.53,14598,19.69,74142.8,13.35,4.67,4.85,0,*44
1497082051.79,14599,19.69,74138.8,13.35,4.79,4.97,0,*49
1497082053.01,14600,19.69,74142.0,13.35,4.57,4.79,0,*46
1497082054.24,14601,19.69,74142.0,13.35,4.45,4.59,0,*46
1497082055.44,14602,19.69,74142.3,13.33,4.45,4.67,0,*4E
1497082056.63,14603,19.69,74140.5,13.33,4.19,4.41,0,*42
1497082057.84,14604,19.69,74142.0,13.33,4.11,4.31,0,*4A
1497082059.06,14605,19.69,74142.5,13.35,4.01,4.27,0,*4B
1497082060.24,14606,19.69,74142.8,13.33,4.23,4.53,0,*4D
1497082061.42,14607,19.69,74140.0,13.33,4.11,4.33,0,*4B
1497082062.64,14608,19.69,74140.5,13.33,4.33,4.75,0,*46
1497082063.81,14609,19.69,74142.5,13.33,4.41,4.81,0,*49
1497082065.03,14610,19.69,74142.3,13.31,4.11,4.41,0,*4A
1497082066.24,14611,19.69,74140.8,13.31,4.19,4.41,0,*43
1497082067.43,14612,19.69,74140.8,13.29,4.19,4.57,0,*4E
1497082068.62,14613,19.69,74140.5,13.29,4.15,4.37,0,*45
1497082069.82,14614,19.69,74142.8,13.27,4.23,4.57,0,*4F
1497082071.04,14615,19.69,74142.3,13.29,4.41,4.71,0,*40
1497082072.24,14616,19.69,74142.5,13.29,4.05,4.27,0,*40
1497082073.46,14617,19.69,74140.5,13.25,4.31,4.57,0,*4D
1497082074.72,14618,19.69,74138.0,13.27,4.71,5.05,0,*42
1497082075.96,14619,19.69,74142.0,13.25,4.67,5.01,0,*42
1497082077.19,14620,19.69,74142.8,13.27,4.45,4.75,0,*48
1497082078.43,14621,19.69,74140.3,13.25,4.67,4.93,0,*43
1497082079.64,14622,19.69,74142.5,13.25,4.67,4.81,0,*43
1497082080.84,14623,19.69,74140.3,13.25,4.67,4.81,0,*42
1497082082.02,14624,19.69,74144.0,13.25,4.41,4.53,0,*4E
1497082083.24,14625,19.69,74140.8,13.25,4.33,4.63,0,*49
1497082084.42,14626,19.75,74146.0,13.25,4.19,4.33,0,*47
1497082085.6,14627,19.69,74140.3,13.23,4.41,4.57,0,*4F
1497082086.79,14628,19.69,74136.5,13.23,4.07,4.23,0,*41
1497082087.99,14629,19.69,74140.5,13.21,4.07,4.19,0,*4B
1497082089.22,14630,19.69,74142.5,13.21,3.81,3.97,0,*4B
1497082090.46,14631,19.69,74136.8,13.21,3.81,3.97,0,*4A
1497082091.63,14632,19.69,74142.8,13.19,3.89,4.19,0,*4B
1497082092.84,14633,19.69,74140.8,13.19,4.37,4.59,0,*4C
1497082094.1,14634,19.69,74138.8,13.17,4.59,4.71,0,*47
1497082095.33,14635,19.69,74142.3,13.19,4.67,4.97,0,*4D
1497082096.57,14636,19.69,74140.5,13.19,4.63,4.97,0,*4A
1497082097.8,14637,19.69,74142.0,13.19,4.59,4.79,0,*42
1497082099.03,14638,19.69,74140.3,13.17,4.33,4.63,0,*44
1497082100.24,14639,19.75,74144.5,13.19,4.41,4.59,0,*47
1497082101.44,14640,19.75,74142.3,13.19,4.31,4.49,0,*4F
1497082102.62,14641,19.69,74142.5,13.19,4.19,4.37,0,*4D
1497082103.8,14642,19.69,74142.8,13.19,4.19,4.37,0,*4E
1497082105.04,14643,19.69,74142.0,13.19,4.59,4.75,0,*4D
1497082106.31,14644,19.69,74142.8,13.17,4.71,4.93,0,*46
1497082107.49,14645,19.69,74138.5,13.19,4.85,5.11,0,*49
1497082108.72,14646,19.69,74142.0,13.19,4.59,4.75,0,*48
1497082109.9,14647,19.69,74142.5,13.19,4.27,4.49,0,*4F
1497082111.1,14648,19.69,74140.3,13.19,4.41,4.59,0,*41
1497082112.33,14649,19.69,74142.3,13.17,4.45,4.63,0,*43
1497082113.52,14650,19.75,74142.8,13.19,4.89,5.19,0,*49
1497082114.72,14651,19.69,74140.3,13.19,4.49,4.75,0,*4F
1497082115.94,14652,19.69,74140.3,13.21,4.27,4.41,0,*48
1497082117.14,14653,19.69,74140.3,13.17,4.11,4.15,0,*48
1497082118.32,14654,19.69,74142.8,13.19,4.27,4.49,0,*4D
1497082119.53,14655,19.69,74142.0,13.17,4.27,4.33,0,*4F
1497082120.74,14656,19.75,74140.3,13.17,4.11,4.15,0,*4D
1497082121.95,14657,19.69,74140.3,13.17,4.33,4.37,0,*4C